Regional Weather Roundup
Issued by NWS

Home | Current Version | Previous Version | Text Only | Print | Product List | Glossary Off
Versions: 1 2 3 4 5 6 7 8 9 10 11 12 13 14 15 16 17 18 19 20 21 22 23 24 25 26 27 28 29 30 31 32 33 34 35 36 37 38 39 40 41 42 43 44 45 46 47 48 49 50

000
ASUS43 KIND 070559
RWRIN

WEATHER ROUNDUP FOR INDIANA
NATIONAL WEATHER SERVICE INDIANAPOLIS IN
100 AM EST SUN FEB 07 2016

NOTE: "FAIR" INDICATES FEW OR NO CLOUDS BELOW 12,000 FEET WITH NO
SIGNIFICANT WEATHER AND/OR OBSTRUCTIONS TO VISIBILITY.

* - STATION DOES NOT REPORT WEATHER SUCH AS PRECIPITATION OR FOG.

+ - STATION NOT QUALITY CONTROLLED BY THE NATIONAL WEATHER SERVICE.
    USE DATA WITH CAUTION...ESPECIALLY DEWPOINT AND RELATIVE
    HUMIDITY OBSERVATIONS.

INZ001>003-010>013-019-020-070700-
NORTHWEST INDIANA

CITY           SKY/WX    TMP DP  RH WIND       PRES   REMARKS

$$

LMZ046-743>745-070700-
SOUTHERN LAKE MICHIGAN

STATION/POSITION TIME  TEMP    WIND        PRES    WAVE
                       AIR SEA DIR/SP/G            HT
                 (UTC) (F)     (DEG/KT/KT) (MB)    (FT)
BURNS HARBOR     0500   35     180/ 10/ 12 1019.0F
MICHIGAN CITY    0500   37     150/ 15/ 18   N/A

$$

INZ004-005-014>016-021>024-070700-
NORTH CENTRAL INDIANA

CITY           SKY/WX    TMP DP  RH WIND       PRES   REMARKS
GOSHEN         CLEAR     33  26  75 S8        30.08F WCI  26
6HR MIN TEMP:  33; 6HR MAX TEMP:  35;

PERU/GRISSOM   CLEAR     31  27  83 S8        30.10F WCI  24
6HR MIN TEMP:  30; 6HR MAX TEMP:  34;

SOUTH BEND     CLEAR     31  26  82 S8        30.08F WCI  23
6HR MIN TEMP:  29; 6HR MAX TEMP:  34;


$$

INZ006>009-017-018-025>027-070700-
NORTHEAST INDIANA

CITY           SKY/WX    TMP DP  RH WIND       PRES   REMARKS
FORT WAYNE     CLEAR     32  25  75 S9        30.12F WCI  24
6HR MIN TEMP:  29; 6HR MAX TEMP:  32;


$$

INZ028-029-035-036-043>045-051>053-070700-
WEST CENTRAL INDIANA

CITY           SKY/WX    TMP DP  RH WIND       PRES   REMARKS
GREENCASTLE +  PTCLDY    37  19  48 SW7       30.15F
LAFAYETTE      CLEAR     34  25  69 SW5       30.12F WCI  30
6HR MIN TEMP:  28; 6HR MAX TEMP:  39;

TERRE HAUTE    CLEAR     39  24  55 S10       30.15F
6HR MIN TEMP:  32; 6HR MAX TEMP:  39;


$$

INZ030>032-037>040-046>048-054>057-064-065-070700-
CENTRAL INDIANA

CITY           SKY/WX    TMP DP  RH WIND       PRES   REMARKS
GREENWOOD *+   PTCLDY    34  27  75 S5        30.17S WCI  30
INDIANAPOLIS   CLEAR     33  23  66 S9        30.14F WCI  25
6HR MIN TEMP:  33; 6HR MAX TEMP:  40;

-EAGLE CREEK   CLEAR     33  24  69 CALM      30.14F
6HR MIN TEMP:  32; 6HR MAX TEMP:  40;

KOKOMO *+        N/A     34  27  75 S10       30.12F WCI  26
6HR MIN TEMP:  30; 6HR MAX TEMP:  34;

MT COMFORT *+  PTCLDY    34  25  69 S8        30.16F WCI  27
SHELBYVILLE    CLEAR     37  25  61 S10       30.16F
6HR MIN TEMP:  32; 6HR MAX TEMP:  37;


$$

INZ033-034-041-042-049-050-058-059-070700-
EAST CENTRAL INDIANA

CITY           SKY/WX    TMP DP  RH WIND       PRES   REMARKS
MUNCIE         CLEAR     36  25  64 S9        30.14F
6HR MIN TEMP:  35; 6HR MAX TEMP:  38;


$$

INZ060-061-067>069-081>083-085>088-070700-
SOUTHWEST INDIANA

CITY           SKY/WX    TMP DP  RH WIND       PRES   REMARKS
EVANSVILLE     CLEAR     36  24  62 SW7       30.23F
6HR MIN TEMP:  36; 6HR MAX TEMP:  49;

HUNTINGBURG *+ CLEAR     37  23  56 SW6       30.23S
6HR MIN TEMP:  36; 6HR MAX TEMP:  45;


$$

INZ062-063-066-070>080-084-089>092-070700-
SOUTH CENTRAL AND SOUTHEAST INDIANA

CITY           SKY/WX    TMP DP  RH WIND       PRES   REMARKS
BLOOMINGTON    CLEAR     38  24  57 SW8       30.18S
6HR MIN TEMP:  30; 6HR MAX TEMP:  40;

MADISON *+     CLEAR     30  27  86 CALM      30.22F
SEYMOUR +      CLEAR     32  25  74 CALM      30.20F

$$




USA.gov is the U.S. government's official web portal to all federal, state and local government web resources and services.